Flag for Germany Weather past 2 weeks in Cologne, North Rhine-Westphalia, Germany

Now
55 °F

Broken clouds.


Feels Like: 54 °F
Forecast: 46 / 58 °F
Wind: 7 mph from South

Location: Koeln / Bonn

Current Time: Oct 23, 2014 at 5:21:17 PM

Latest Report: Oct 23, 2014 at 4:50 PM


Visibility: N/A

Pressure: 30.21 "Hg

Humidity: 77%

Dew point: 48 °F

Location of CologneLocation

Historic Weather in Cologne — Graph

°F

Cologne temperature yesterday

Maximum temperature yesterday: 52 °F (at 2:20 PM)
Minimum temperature yesterday: 43 °F (at 12:20 AM)
Average temperature yesterday: 47 °F

Past Weeks' High & Low Weather Summary

 TemperatureHumidityPressure
High75 °F (Oct 19, 1:50 PM)100% (Oct 11, 3:50 AM)30.24 "Hg (Oct 11, 3:50 AM)
Low43 °F (Oct 22, 12:20 AM)46% (Oct 14, 2:50 PM)29.53 "Hg (Oct 21, 4:20 PM)
Average57 °F83%29.89 "Hg
* Reported Oct 8 3:20 PM — Oct 23 3:50 PM, Cologne, Weather by CustomWeather, © 2014

Note: Actual official high and low records may vary slightly from our data, if they occured in-between our weather recording intervals... More about our weather records

Advertising

Cologne weather history for previous 24 hours

 ConditionsComfort  
Time TempWeatherWind HumidityBarometerVisibility
3:50 PM
Oct 23
55 °FBroken clouds.7 mph72%30.21 "HgN/A
3:20 PM55 °FPartly sunny.7 mph72%30.21 "HgN/A
2:50 PM55 °FBroken clouds.6 mph72%30.21 "HgN/A
2:20 PM55 °FBroken clouds.6 mph72%30.21 "HgN/A
1:50 PM55 °FPartly sunny.6 mph72%30.24 "HgN/A
1:20 PM55 °FPartly sunny.6 mph67%30.24 "HgN/A
12:50 PM54 °FPartly sunny.6 mph77%30.24 "HgN/A
12:20 PM54 °FPartly sunny.5 mph77%30.24 "HgN/A
11:50 AM52 °FBroken clouds.5 mph88%30.24 "HgN/A
11:20 AM50 °FPartly sunny.6 mph88%30.24 "HgN/A
10:50 AM50 °FBroken clouds.5 mph88%30.24 "HgN/A
10:20 AM48 °FPartly sunny.5 mph94%30.24 "HgN/A
9:50 AM48 °FPartly sunny.3 mph94%30.24 "HgN/A
9:20 AM48 °FBroken clouds.5 mph94%30.24 "HgN/A
8:50 AM46 °FPartly cloudy.6 mph93%30.21 "HgN/A
8:20 AM46 °FPartly cloudy.5 mph93%30.21 "HgN/A
7:50 AM46 °FPartly cloudy.3 mph93%30.21 "HgN/A
7:20 AM46 °FPartly cloudy.2 mph93%30.21 "HgN/A
6:50 AM46 °FPassing clouds.2 mph93%30.21 "HgN/A
6:20 AM46 °FPassing clouds.2 mph93%30.21 "HgN/A
5:50 AM46 °FPartly cloudy.2 mph87%30.18 "HgN/A
5:20 AM46 °FPassing clouds.2 mph87%30.18 "HgN/A
4:50 AM46 °FPartly cloudy.5 mph87%30.18 "HgN/A
4:20 AM45 °FPassing clouds.3 mph93%30.18 "HgN/A
3:50 AM45 °FFog.2 mph93%30.21 "HgN/A
3:20 AM46 °FClear.6 mph87%30.21 "Hg10 mi
2:50 AM46 °FClear.3 mph87%30.21 "Hg10 mi
2:20 AM46 °FClear.2 mph87%30.18 "Hg10 mi
1:50 AM46 °FClear.2 mph87%30.18 "Hg10 mi
1:20 AM46 °FClear.2 mph87%30.18 "Hg10 mi
12:50 AM46 °FClear.2 mph93%30.18 "Hg10 mi
12:20 AM48 °FPassing clouds.3 mph87%30.18 "HgN/A
11:50 PM
Oct 22
48 °FPassing clouds.3 mph87%30.18 "HgN/A
11:20 PM46 °FPassing clouds.3 mph87%30.18 "HgN/A
10:50 PM48 °FPassing clouds.7 mph87%30.18 "HgN/A
10:20 PM48 °FLight rain. Passing clouds.9 mph87%30.18 "HgN/A
9:50 PM48 °FPassing clouds.8 mph87%30.18 "HgN/A
9:20 PM48 °FPassing clouds.10 mph87%30.15 "HgN/A
8:50 PM48 °FLight rain. Partly cloudy.10 mph87%30.15 "HgN/A
8:20 PM48 °FScattered showers. Partly cloudy.13 mph87%30.12 "HgN/A
7:50 PM48 °FScattered showers. Passing clouds.15 mph87%30.12 "HgN/A
7:20 PM48 °FPartly sunny.8 mph87%30.12 "HgN/A
6:50 PM46 °FPartly sunny.7 mph93%30.09 "HgN/A
6:20 PM48 °FScattered clouds.13 mph87%30.09 "HgN/A
5:50 PM48 °FSprinkles. Partly sunny.17 mph87%30.09 "HgN/A
5:20 PM50 °FRain showers. Scattered clouds.23 mph82%30.07 "HgN/A
Weather by CustomWeather, © 2014

See weather overviewHow to use our weather pages